Location: Pitton
(51.0667°N, 1.7000°W)
Time: 19:16:51
(UTC+00:00)

Cosmos 1842 - Pass Details

Date: 17 September 2019
Orbit: 521 x 538 km, 82.5° (Epoch: 23 October)

Event Time Altitude Azimuth Distance (km) Brightness Sun altitude
Rises 19:15:44 0° 345° (NNW) 2,708 7.3 -9.9°
Reaches altitude 10° 19:17:57 10° 340° (NNW) 1,811 6.5 -10.2°
Maximum altitude 19:21:48 50° 265° (W) 691 4.3 -10.8°
Drops below altitude 10° 19:25:37 10° 190° (S) 1,792 5.9 -11.4°
Sets 19:27:47 0° 185° (S) 2,676 6.7 -11.7°
